Torna al catalogo

STARLINK-37561

AttivoComunicazioniVLEO
NORAD 69821·PAYLOAD·🇺🇸 United States

Lanciato Jul 5, 2026 da Cape Canaveral Space Force Station

Loading…

Prossimi Passaggi (prossime 24 ore)

TLE

AggiornatoSource: CelesTrak SupGP

Epoca: Sep 15, 2026, 04:10 UTC

1 69821C 26154C   26258.17409722  .00074268  00000+0  21940-2 0  2581
2 69821  53.1586 356.2667 0001063  94.4135 326.0600 15.34357777    14

Traccia STARLINK-37561 in tempo reale con AllMySat

Download on the App Store